Location: Hohenfelde
(53.8441°N, 9.6220°E)
Time: 12:23:13
(UTC+00:00)

NOSS 2-1 (C) - Pass Details

Date: 14 July 2020
Orbit: 443 x 1759 km, 63.3° (Epoch: 29 July)

Event Time Altitude Azimuth Distance (km) Brightness Sun altitude
Rises 00:24:29 0° 309° (NW) 2,956 7.4 -13.5°
Reaches altitude 10° 00:26:32 10° 304° (NW) 2,182 6.6 -13.5°
Maximum altitude 00:31:20 49° 230° (SW) 1,112 4.5 -13.3°
Drops below altitude 10° 00:37:58 10° 158° (SSE) 3,000 6.6 -13.0°
Enters shadow 00:39:09 - 156° (SSE) 3,432 6.9 -13.0°
